WMT2XE LRCL-LEZG

Flight info

Callsign WMT2XE
Flight time N/A
Altitude 38000
Route ELROM DCT DEGET DCT KOPRY DCT RIFEN/N0438F390 DCT RIDVA DCT TESTO DCT GEKBA DCT VAMTU DCT KOLON DCT GANGU DCT PADKO DCT DIVKO DCT NILDU DCT BISBA DCT BGR DCT SLL T410 ARBEK N725 MECKI DCT LOBAR
Aircraft A20N/M-SDE2E3FGHIRWXY/LB1

Departure

Time 2026-04-25 10:50
Airport Avram Iancu Cluj International Airport (LRCL)

Arrival

Time N/A
Airport Zaragoza Airport (LEZG)
Time Latitude Longitude Altitude Speed Heading
2026-04-25 10:35 46.78527 23.69430 1023 ft 0 kts 72°
2026-04-25 10:40 46.78525 23.69423 1023 ft 2 kts 60°
2026-04-25 10:41 46.78520 23.69411 1023 ft 1 kts 70°
2026-04-25 10:41 46.78514 23.69390 1024 ft 2 kts 47°
2026-04-25 10:41 46.78503 23.69376 1024 ft 2 kts 28°
2026-04-25 10:41 46.78488 23.69369 1024 ft 2 kts
2026-04-25 10:42 46.78474 23.69369 1024 ft 1 kts 347°
2026-04-25 10:42 46.78468 23.69372 1024 ft 1 kts 340°
2026-04-25 10:42 46.78465 23.69373 1024 ft 0 kts 341°
2026-04-25 10:44 46.78466 23.69373 1024 ft 0 kts 341°
2026-04-25 10:44 46.78478 23.69367 1024 ft 2 kts 341°
2026-04-25 10:44 46.78502 23.69355 1024 ft 4 kts 341°
2026-04-25 10:45 46.78545 23.69335 1023 ft 8 kts 342°
2026-04-25 10:45 46.78608 23.69304 1022 ft 11 kts 342°
2026-04-25 10:45 46.78690 23.69266 1022 ft 12 kts 342°
2026-04-25 10:45 46.78733 23.69173 1023 ft 13 kts 253°
2026-04-25 10:46 46.78704 23.69049 1024 ft 13 kts 252°
2026-04-25 10:46 46.78674 23.68915 1024 ft 14 kts 252°
2026-04-25 10:46 46.78641 23.68768 1024 ft 15 kts 252°
2026-04-25 10:46 46.78607 23.68612 1025 ft 16 kts 252°
2026-04-25 10:47 46.78572 23.68461 1027 ft 15 kts 252°
2026-04-25 10:47 46.78537 23.68305 1027 ft 17 kts 252°
2026-04-25 10:47 46.78497 23.68128 1027 ft 19 kts 251°
2026-04-25 10:47 46.78454 23.67935 1029 ft 20 kts 251°
2026-04-25 10:48 46.78411 23.67739 1031 ft 20 kts 252°
2026-04-25 10:48 46.78364 23.67542 1034 ft 19 kts 253°
2026-04-25 10:48 46.78337 23.67349 1034 ft 19 kts 266°
2026-04-25 10:48 46.78402 23.67197 1036 ft 18 kts 333°
2026-04-25 10:49 46.78492 23.67306 1034 ft 35 kts 72°
2026-04-25 10:49 46.78653 23.68036 1027 ft 110 kts 72°
2026-04-25 10:49 46.78964 23.69392 1030 ft 167 kts 72°
2026-04-25 10:49 46.79346 23.71122 1412 ft 185 kts 74°
2026-04-25 10:50 46.79740 23.72924 2200 ft 187 kts 73°
2026-04-25 10:50 46.80130 23.74764 2914 ft 196 kts 72°
2026-04-25 10:50 46.80570 23.76705 3488 ft 212 kts 71°
2026-04-25 10:50 46.81060 23.78820 4005 ft 228 kts 71°
2026-04-25 10:51 46.81587 23.81117 4522 ft 246 kts 71°
2026-04-25 10:51 46.82150 23.83598 5045 ft 264 kts 71°
2026-04-25 10:51 46.82796 23.86182 5595 ft 279 kts 60°
2026-04-25 10:51 46.84096 23.88255 6331 ft 281 kts 28°
2026-04-25 10:52 46.85928 23.89125 7201 ft 275 kts 359°
2026-04-25 10:52 46.87783 23.88650 8055 ft 269 kts 332°
2026-04-25 10:52 46.89344 23.87204 8885 ft 268 kts 323°
2026-04-25 10:52 46.90865 23.85638 9675 ft 270 kts 323°
2026-04-25 10:53 46.92406 23.84080 10449 ft 273 kts 324°
2026-04-25 10:53 46.94010 23.82477 10950 ft 287 kts 324°
2026-04-25 10:53 46.95681 23.80818 11609 ft 293 kts 324°
2026-04-25 10:53 46.97355 23.79159 12340 ft 295 kts 325°
2026-04-25 10:54 46.98968 23.77294 13040 ft 297 kts 311°
2026-04-25 10:54 46.99741 23.75608 13497 ft 301 kts 296°
2026-04-25 10:54 47.00277 23.71602 14409 ft 311 kts 269°
2026-04-25 10:54 46.99713 23.68527 15091 ft 322 kts 247°
2026-04-25 10:55 46.98353 23.65813 15760 ft 330 kts 233°
2026-04-25 10:55 46.96849 23.63312 16412 ft 333 kts 233°
2026-04-25 10:55 46.95315 23.60756 17045 ft 336 kts 234°
2026-04-25 10:55 46.93760 23.58153 17662 ft 339 kts 234°
2026-04-25 10:56 46.92213 23.55559 18283 ft 342 kts 234°
2026-04-25 10:56 46.90666 23.52958 18887 ft 344 kts 234°
2026-04-25 10:56 46.89108 23.50344 19475 ft 347 kts 234°
2026-04-25 10:56 46.87548 23.47727 20064 ft 349 kts 234°
2026-04-25 10:57 46.85966 23.45074 20638 ft 352 kts 234°
2026-04-25 10:57 46.84346 23.42359 21220 ft 354 kts 234°
2026-04-25 10:57 46.82719 23.39639 21798 ft 357 kts 234°
2026-04-25 10:57 46.81091 23.36917 22374 ft 359 kts 234°
2026-04-25 10:58 46.79612 23.34082 22900 ft 357 kts 244°
2026-04-25 10:58 46.78519 23.30809 23454 ft 353 kts 255°
2026-04-25 10:58 46.77844 23.27264 24022 ft 352 kts 261°
2026-04-25 10:58 46.77312 23.23752 24548 ft 354 kts 262°
2026-04-25 10:59 46.76784 23.20192 25035 ft 358 kts 262°
2026-04-25 10:59 46.76249 23.16621 25416 ft 363 kts 262°
2026-04-25 10:59 46.75692 23.12960 25828 ft 368 kts 262°
2026-04-25 10:59 46.75136 23.09350 26292 ft 371 kts 262°
2026-04-25 11:00 46.74577 23.05731 26726 ft 374 kts 262°
2026-04-25 11:00 46.74010 23.02012 27166 ft 376 kts 263°
2026-04-25 11:00 46.73500 22.98263 27611 ft 377 kts 264°
2026-04-25 11:00 46.73005 22.94481 28030 ft 379 kts 264°
2026-04-25 11:01 46.72505 22.90669 28430 ft 382 kts 264°
2026-04-25 11:01 46.72017 22.86979 28798 ft 384 kts 264°
2026-04-25 11:01 46.71510 22.83173 29174 ft 385 kts 264°
2026-04-25 11:01 46.70995 22.79319 29516 ft 388 kts 264°
2026-04-25 11:02 46.70497 22.75615 29822 ft 390 kts 264°
2026-04-25 11:02 46.69976 22.71760 30133 ft 392 kts 264°
2026-04-25 11:02 46.69428 22.67705 30462 ft 394 kts 264°
2026-04-25 11:02 46.68890 22.63746 30760 ft 395 kts 264°
2026-04-25 11:03 46.68354 22.59796 31038 ft 397 kts 264°
2026-04-25 11:03 46.67810 22.55816 31318 ft 399 kts 264°
2026-04-25 11:03 46.67282 22.51948 31582 ft 400 kts 264°
2026-04-25 11:03 46.66725 22.47895 31868 ft 401 kts 264°
2026-04-25 11:04 46.66201 22.44093 32120 ft 403 kts 264°
2026-04-25 11:04 46.65658 22.40170 32356 ft 404 kts 264°
2026-04-25 11:04 46.65106 22.36184 32587 ft 405 kts 264°
2026-04-25 11:04 46.64739 22.33548 32742 ft 406 kts 263°
2026-04-25 11:05 46.63986 22.28131 33053 ft 408 kts 263°
2026-04-25 11:05 46.63447 22.24273 33349 ft 407 kts 263°
2026-04-25 11:05 46.62899 22.20361 33693 ft 405 kts 263°
2026-04-25 11:05 46.62344 22.16408 34017 ft 403 kts 263°
2026-04-25 11:06 46.61789 22.12463 34321 ft 402 kts 263°
2026-04-25 11:06 46.61218 22.08427 34614 ft 401 kts 263°
2026-04-25 11:06 46.60659 22.04477 34910 ft 400 kts 263°
2026-04-25 11:06 46.60095 22.00495 35181 ft 399 kts 263°
2026-04-25 11:07 46.59529 21.96521 35435 ft 399 kts 263°
2026-04-25 11:07 46.58964 21.92555 35677 ft 399 kts 263°
2026-04-25 11:07 46.58408 21.88660 35914 ft 398 kts 263°
2026-04-25 11:07 46.57845 21.84743 36134 ft 398 kts 263°
2026-04-25 11:08 46.57275 21.80769 36341 ft 398 kts 263°
2026-04-25 11:08 46.56706 21.76817 36562 ft 398 kts 263°
2026-04-25 11:08 46.56145 21.72934 36806 ft 396 kts 263°
2026-04-25 11:08 46.55575 21.69006 37028 ft 395 kts 263°
2026-04-25 11:09 46.55004 21.65068 37205 ft 395 kts 263°
2026-04-25 11:09 46.54436 21.61162 37364 ft 396 kts 263°
2026-04-25 11:09 46.53869 21.57278 37529 ft 396 kts 263°
2026-04-25 11:09 46.53298 21.53379 37697 ft 395 kts 263°
2026-04-25 11:10 46.52727 21.49484 37858 ft 395 kts 263°
2026-04-25 11:10 46.51583 21.41715 37991 ft 396 kts 263°
2026-04-25 11:11 46.50422 21.33877 37992 ft 396 kts 262°
2026-04-25 11:11 46.49447 21.25989 37993 ft 394 kts 267°
2026-04-25 11:12 46.49010 21.18130 37995 ft 392 kts 270°
2026-04-25 11:12 46.48686 21.10244 37995 ft 392 kts 270°
2026-04-25 11:13 46.48356 21.02343 37995 ft 393 kts 270°
2026-04-25 11:13 46.48024 20.94476 37994 ft 391 kts 270°
2026-04-25 11:14 46.47684 20.86616 37988 ft 391 kts 270°
2026-04-25 11:14 46.47342 20.78772 37994 ft 392 kts 270°
2026-04-25 11:15 46.46993 20.70900 37992 ft 392 kts 270°
2026-04-25 11:15 46.46636 20.62994 37991 ft 392 kts 270°
2026-04-25 11:16 46.46094 20.51219 37990 ft 392 kts 270°
2026-04-25 11:16 46.45727 20.43362 37993 ft 392 kts 270°
2026-04-25 11:17 46.45353 20.35504 37990 ft 392 kts 270°
2026-04-25 11:17 46.44971 20.27588 37995 ft 392 kts 269°
2026-04-25 11:18 46.44585 20.19673 37997 ft 392 kts 269°
2026-04-25 11:18 46.44195 20.11805 37998 ft 392 kts 269°
2026-04-25 11:19 46.43796 20.03890 38000 ft 392 kts 269°
2026-04-25 11:19 46.43395 19.96019 37996 ft 391 kts 269°
2026-04-25 11:20 46.42989 19.88166 37998 ft 392 kts 269°
2026-04-25 11:20 46.42576 19.80285 38002 ft 393 kts 269°
2026-04-25 11:21 46.42156 19.72357 38002 ft 393 kts 269°
2026-04-25 11:21 46.41733 19.64494 38004 ft 393 kts 269°
2026-04-25 11:22 46.41375 19.57923 38007 ft 393 kts 269°
2026-04-25 11:22 46.40868 19.48735 38002 ft 393 kts 269°
2026-04-25 11:23 46.40423 19.40762 38008 ft 393 kts 269°
2026-04-25 11:23 46.39975 19.32845 38009 ft 393 kts 268°
2026-04-25 11:24 46.39519 19.24884 38006 ft 393 kts 268°
2026-04-25 11:24 46.39060 19.16974 38008 ft 393 kts 268°
2026-04-25 11:25 46.38599 19.09107 38010 ft 394 kts 268°
2026-04-25 11:25 46.38127 19.01176 38008 ft 394 kts 268°
2026-04-25 11:26 46.37656 18.93325 38009 ft 394 kts 268°
2026-04-25 11:26 46.37178 18.85444 38012 ft 394 kts 268°
2026-04-25 11:27 46.36693 18.77564 38010 ft 393 kts 268°
2026-04-25 11:27 46.36283 18.70973 38012 ft 393 kts 268°
2026-04-25 11:28 46.35706 18.61781 38011 ft 393 kts 268°
2026-04-25 11:28 46.35202 18.53864 38017 ft 394 kts 268°
2026-04-25 11:29 46.34694 18.45951 38014 ft 394 kts 268°
2026-04-25 11:29 46.34184 18.38084 38017 ft 394 kts 268°
2026-04-25 11:30 46.33663 18.30154 38016 ft 394 kts 266°
2026-04-25 11:30 46.33141 18.22304 38016 ft 394 kts 266°
2026-04-25 11:31 46.32613 18.14424 38016 ft 394 kts 266°
2026-04-25 11:31 46.32077 18.06535 38018 ft 393 kts 266°
2026-04-25 11:32 46.31542 17.98707 38017 ft 393 kts 266°
2026-04-25 11:32 46.30996 17.90805 38020 ft 393 kts 266°
2026-04-25 11:33 46.30451 17.83000 38017 ft 393 kts 266°
2026-04-25 11:33 46.29895 17.75120 38020 ft 394 kts 266°
2026-04-25 11:34 46.29324 17.67123 38021 ft 394 kts 266°
2026-04-25 11:34 46.28755 17.59220 38019 ft 394 kts 266°
2026-04-25 11:35 46.28184 17.51358 38017 ft 394 kts 266°
2026-04-25 11:35 46.27605 17.43469 38017 ft 393 kts 266°
2026-04-25 11:36 46.27026 17.35653 38016 ft 393 kts 266°
2026-04-25 11:36 46.26433 17.27718 38015 ft 393 kts 265°
2026-04-25 11:37 46.25840 17.19871 38016 ft 394 kts 265°
2026-04-25 11:37 46.25239 17.11984 38015 ft 395 kts 265°
2026-04-25 11:38 46.24634 17.04129 38014 ft 395 kts 265°
2026-04-25 11:38 46.24018 16.96204 38014 ft 395 kts 265°
2026-04-25 11:39 46.23260 16.88365 38019 ft 395 kts 264°
2026-04-25 11:39 46.22456 16.80548 38023 ft 395 kts 263°
2026-04-25 11:40 46.21649 16.72688 38026 ft 394 kts 264°
2026-04-25 11:40 46.20855 16.64966 38024 ft 395 kts 263°
2026-04-25 11:41 46.20033 16.57008 38024 ft 395 kts 264°
2026-04-25 11:41 46.19221 16.49203 38021 ft 395 kts 264°
2026-04-25 11:42 46.18404 16.41387 38022 ft 395 kts 263°
2026-04-25 11:42 46.17577 16.33532 38027 ft 395 kts 263°
2026-04-25 11:43 46.16736 16.25595 38029 ft 396 kts 263°
2026-04-25 11:43 46.15900 16.17754 38026 ft 396 kts 263°
2026-04-25 11:44 46.15060 16.09945 38026 ft 396 kts 263°
2026-04-25 11:44 46.14206 16.02055 38018 ft 395 kts 263°
2026-04-25 11:45 46.13351 15.94198 38020 ft 395 kts 263°
2026-04-25 11:45 46.12612 15.87451 38021 ft 395 kts 263°
2026-04-25 11:46 46.11921 15.81174 38023 ft 395 kts 262°
2026-04-25 11:47 46.10282 15.66419 38023 ft 396 kts 262°
2026-04-25 11:47 46.09486 15.59321 38022 ft 396 kts 262°